TimeCST,TemperatureF,Dew PointF,Humidity,Sea Level PressureIn,VisibilityMPH,Wind Direction,Wind SpeedMPH,Gust SpeedMPH,PrecipitationIn,Events,Conditions,WindDirDegrees,DateUTC
12:00 AM,68,55,53,,12,NE,11.5,,,,,40,2013-12-05 06:00:00
12:00 AM,68.0,55.4,64,30.02,-9999.0,NE,11.5,-,N/A,,Clear,40,2013-12-05 06:00:00
1:00 AM,66.2,53.6,64,30.00,-9999.0,NE,8.1,-,N/A,,Clear,40,2013-12-05 07:00:00
2:00 AM,68.0,55.4,64,29.99,-9999.0,ENE,10.4,-,N/A,,Clear,60,2013-12-05 08:00:00
3:00 AM,65,54,58,29.84,12,NNE,13.8,,,,,20,2013-12-05 09:00:00
3:00 AM,64.4,53.6,68,29.99,-9999.0,NNE,13.8,-,N/A,,Clear,20,2013-12-05 09:00:00
4:00 AM,64.4,53.6,68,29.99,-9999.0,NE,11.5,-,N/A,,Clear,50,2013-12-05 10:00:00
5:00 AM,62.6,53.6,72,30.00,-9999.0,NE,10.4,-,N/A,,Clear,50,2013-12-05 11:00:00
6:00 AM,62,54,66,29.91,12,NE,9.2,,,,Clear,40,2013-12-05 12:00:00
6:00 AM,62.6,53.6,72,30.02,-9999.0,NE,9.2,-,N/A,,Clear,40,2013-12-05 12:00:00
7:00 AM,71.6,55.4,57,30.05,-9999.0,NE,4.6,-,N/A,,Clear,40,2013-12-05 13:00:00
8:00 AM,75.2,57.2,53,30.06,-9999.0,East,3.5,-,N/A,,Clear,90,2013-12-05 14:00:00
9:00 AM,79,57,36,29.91,12,ESE,6.9,,,,,110,2013-12-05 15:00:00
9:00 AM,78.8,57.2,47,30.06,-9999.0,ESE,6.9,-,N/A,,Clear,110,2013-12-05 15:00:00
10:00 AM,82.4,57.2,42,30.06,-9999.0,ESE,6.9,-,N/A,,Clear,110,2013-12-05 16:00:00
11:00 AM,82.4,57.2,42,30.03,6.2,ESE,5.8,-,N/A,,Partly Cloudy,110,2013-12-05 17:00:00
12:00 PM,83,58,32,29.85,12,SSE,5.8,,,,Scattered Clouds,160,2013-12-05 18:00:00
12:00 PM,82.4,57.2,42,30.00,6.2,SSE,5.8,-,N/A,,Partly Cloudy,160,2013-12-05 18:00:00
1:00 PM,82.4,59.0,45,29.98,6.2,ESE,5.8,-,N/A,,Mostly Cloudy,120,2013-12-05 19:00:00
1:15 PM,78.8,62.6,57,29.98,6.2,SW,8.1,-,N/A,,Mostly Cloudy,230,2013-12-05 19:15:00
2:00 PM,78.8,64.4,61,29.97,6.2,WSW,6.9,-,N/A,,Mostly Cloudy,240,2013-12-05 20:00:00
3:00 PM,78,66,57,29.82,12,WSW,6.9,,,,Mostly Cloudy,240,2013-12-05 21:00:00
3:00 PM,78.8,66.2,65,29.95,6.2,WSW,6.9,-,N/A,,Mostly Cloudy,240,2013-12-05 21:00:00
4:00 PM,78.8,66.2,65,29.94,6.2,WSW,6.9,-,N/A,,Scattered Clouds,240,2013-12-05 22:00:00
5:00 PM,73.4,68.0,83,29.95,6.2,WSW,9.2,-,N/A,,Scattered Clouds,240,2013-12-05 23:00:00
6:00 PM,71,69,93,29.88,12,West,5.8,,,,Scattered Clouds,270,2013-12-06 00:00:00
6:00 PM,69.8,69.8,100,29.98,6.2,West,5.8,-,N/A,,Scattered Clouds,270,2013-12-06 00:00:00
7:00 PM,69.8,68.0,94,30.01,6.2,SW,2.3,-,N/A,,Scattered Clouds,220,2013-12-06 01:00:00
8:00 PM,71.6,62.6,73,30.02,6.2,NE,4.6,-,N/A,,Scattered Clouds,50,2013-12-06 02:00:00
9:00 PM,71,60,60,29.88,12,East,5.8,,,,Scattered Clouds,80,2013-12-06 03:00:00
9:00 PM,71.6,60.8,69,30.03,6.2,East,5.8,-,N/A,,Scattered Clouds,80,2013-12-06 03:00:00
10:00 PM,69.8,62.6,78,30.02,6.2,NE,3.5,-,N/A,,Scattered Clouds,50,2013-12-06 04:00:00
11:00 PM,69.8,60.8,73,30.00,6.2,Calm,Calm,-,N/A,,Partly Cloudy,0,2013-12-06 05:00:00